User: anonymous   Login
Location: Unspecified
(0.0000°N, 0.0000°E)
Time: 03:02:55
(UTC+00:00)
Language:

DSCS II F-15 - Orbit

View from above orbital plane
View from above orbital plane
View from above satellite
View from above satellite

Ground track
Ground track

The orbit data is extracted from the following two-line orbital elements,

1 20202U 89069A   18065.71268444 0.00000000  00000-0  00000-0 0    07
2 20202  15.3285   1.1367 0014844 206.7618 153.1736  0.98603758    03
Epoch (UTC): 06 March 2018 17:06:15
Eccentricity: 0.0014844
inclination: 15.3285°
perigee height: 36197 km
apogee height: 36323 km
right ascension of ascending node: 1.1367°
argument of perigee: 206.7618°
revolutions per day: 0.98603758
mean anomaly at epoch: 153.1736°
orbit number at epoch: 0

The dashed part of the orbit path shows where the satellite is in the earth's shadow,  

DLR